SIA7407 PHNL-WSSS

Flight info

Callsign SIA7407
Flight time N/A
Altitude 26000
Route OPIHI3 CHOKO R584 MCFLY DCT 16N170W/N0510F280 19N180E 17N170E/N0512F300 14N160E 13N150E/N0507F320 12N140E DCT ISGOG/N0502F340 DCT ZAM A341 VSN W461 BRU M646 TOMAN KARTO2B
Aircraft B744/H-SDE1E2E3FGHIJ3J5M1P2RWXYZ/LB1D1

Departure

Time 2026-05-08 05:11
Airport Daniel K. Inouye International Airport (PHNL)

Arrival

Time N/A
Airport Singapore Changi Airport (WSSS)
Time Latitude Longitude Altitude Speed Heading
2026-05-08 04:28 21.32943 -157.91300 26 ft 0 kts 320°
2026-05-08 04:48 21.32942 -157.91300 26 ft 0 kts 320°
2026-05-08 04:49 21.32939 -157.91297 26 ft 2 kts 320°
2026-05-08 04:50 21.32926 -157.91285 31 ft 2 kts 319°
2026-05-08 04:50 21.32914 -157.91274 28 ft 2 kts 319°
2026-05-08 04:50 21.32902 -157.91262 31 ft 2 kts 309°
2026-05-08 04:50 21.32892 -157.91248 31 ft 2 kts 295°
2026-05-08 04:51 21.32888 -157.91231 31 ft 2 kts 268°
2026-05-08 04:51 21.32890 -157.91214 31 ft 2 kts 241°
2026-05-08 04:51 21.32893 -157.91207 30 ft 0 kts 233°
2026-05-08 04:55 21.32889 -157.91214 30 ft 2 kts 234°
2026-05-08 04:55 21.32877 -157.91230 29 ft 4 kts 234°
2026-05-08 04:55 21.32858 -157.91257 29 ft 6 kts 231°
2026-05-08 04:55 21.32817 -157.91289 27 ft 9 kts 200°
2026-05-08 04:56 21.32754 -157.91303 24 ft 9 kts 191°
2026-05-08 04:56 21.32709 -157.91341 27 ft 8 kts 239°
2026-05-08 04:56 21.32695 -157.91396 22 ft 7 kts 264°
2026-05-08 04:56 21.32693 -157.91451 22 ft 8 kts 268°
2026-05-08 04:57 21.32693 -157.91521 25 ft 10 kts 271°
2026-05-08 04:57 21.32693 -157.91599 23 ft 11 kts 269°
2026-05-08 04:57 21.32692 -157.91681 27 ft 11 kts 269°
2026-05-08 04:57 21.32691 -157.91770 27 ft 12 kts 270°
2026-05-08 04:58 21.32692 -157.91865 28 ft 13 kts 270°
2026-05-08 04:58 21.32692 -157.91967 24 ft 14 kts 270°
2026-05-08 04:58 21.32692 -157.92071 29 ft 14 kts 270°
2026-05-08 04:58 21.32692 -157.92183 29 ft 16 kts 270°
2026-05-08 04:59 21.32692 -157.92304 28 ft 17 kts 272°
2026-05-08 04:59 21.32692 -157.92431 27 ft 17 kts 269°
2026-05-08 04:59 21.32693 -157.92563 25 ft 17 kts 270°
2026-05-08 04:59 21.32695 -157.92692 25 ft 17 kts 275°
2026-05-08 05:00 21.32728 -157.92806 26 ft 15 kts 287°
2026-05-08 05:00 21.32744 -157.92914 27 ft 14 kts 271°
2026-05-08 05:00 21.32743 -157.93011 24 ft 12 kts 268°
2026-05-08 05:00 21.32741 -157.93091 25 ft 10 kts 270°
2026-05-08 05:01 21.32741 -157.93155 26 ft 8 kts 271°
2026-05-08 05:01 21.32742 -157.93225 26 ft 11 kts 271°
2026-05-08 05:01 21.32743 -157.93326 25 ft 16 kts 269°
2026-05-08 05:01 21.32742 -157.93444 25 ft 15 kts 269°
2026-05-08 05:02 21.32741 -157.93546 26 ft 12 kts 270°
2026-05-08 05:02 21.32742 -157.93629 27 ft 10 kts 270°
2026-05-08 05:02 21.32743 -157.93700 27 ft 10 kts 270°
2026-05-08 05:02 21.32743 -157.93776 27 ft 11 kts 270°
2026-05-08 05:03 21.32744 -157.93865 26 ft 13 kts 270°
2026-05-08 05:03 21.32742 -157.93965 26 ft 13 kts 266°
2026-05-08 05:03 21.32722 -157.94043 28 ft 9 kts 241°
2026-05-08 05:03 21.32685 -157.94087 28 ft 8 kts 220°
2026-05-08 05:04 21.32626 -157.94129 28 ft 12 kts 208°
2026-05-08 05:04 21.32541 -157.94179 29 ft 15 kts 208°
2026-05-08 05:04 21.32444 -157.94238 31 ft 17 kts 208°
2026-05-08 05:04 21.32333 -157.94303 30 ft 20 kts 210°
2026-05-08 05:05 21.32211 -157.94378 29 ft 19 kts 209°
2026-05-08 05:05 21.32100 -157.94443 29 ft 17 kts 208°
2026-05-08 05:05 21.31996 -157.94503 28 ft 16 kts 210°
2026-05-08 05:05 21.31904 -157.94559 30 ft 14 kts 209°
2026-05-08 05:06 21.31825 -157.94606 30 ft 13 kts 209°
2026-05-08 05:06 21.31736 -157.94646 29 ft 15 kts 194°
2026-05-08 05:06 21.31608 -157.94654 23 ft 22 kts 174°
2026-05-08 05:06 21.31463 -157.94636 24 ft 20 kts 173°
2026-05-08 05:07 21.31332 -157.94618 22 ft 18 kts 173°
2026-05-08 05:07 21.31212 -157.94602 23 ft 17 kts 173°
2026-05-08 05:07 21.31100 -157.94587 25 ft 15 kts 173°
2026-05-08 05:07 21.31007 -157.94576 27 ft 12 kts 176°
2026-05-08 05:08 21.30929 -157.94573 28 ft 12 kts 180°
2026-05-08 05:08 21.30827 -157.94573 27 ft 18 kts 180°
2026-05-08 05:08 21.30734 -157.94569 26 ft 10 kts 168°
2026-05-08 05:08 21.30690 -157.94531 29 ft 7 kts 116°
2026-05-08 05:09 21.30681 -157.94442 28 ft 32 kts 92°
2026-05-08 05:09 21.30683 -157.93963 30 ft 96 kts 90°
2026-05-08 05:09 21.30686 -157.93038 21 ft 149 kts 89°
2026-05-08 05:09 21.30709 -157.91853 140 ft 160 kts 88°
2026-05-08 05:10 21.30698 -157.90653 238 ft 165 kts 88°
2026-05-08 05:10 21.29825 -157.88283 429 ft 187 kts 130°
2026-05-08 05:10 21.28481 -157.87630 336 ft 241 kts 169°
2026-05-08 05:11 21.26746 -157.87767 930 ft 253 kts 187°
2026-05-08 05:11 21.24964 -157.88107 1480 ft 269 kts 189°
2026-05-08 05:11 21.23739 -157.88358 2001 ft 273 kts 189°
2026-05-08 05:11 21.21888 -157.88851 2966 ft 275 kts 206°
2026-05-08 05:12 21.20335 -157.90054 3960 ft 279 kts 224°
2026-05-08 05:12 21.18989 -157.91552 4957 ft 279 kts 225°
2026-05-08 05:12 21.17604 -157.93002 5936 ft 279 kts 221°
2026-05-08 05:12 21.16122 -157.94358 6838 ft 281 kts 219°
2026-05-08 05:13 21.14616 -157.95706 7670 ft 283 kts 220°
2026-05-08 05:13 21.13117 -157.97098 8522 ft 286 kts 221°
2026-05-08 05:13 21.11613 -157.98513 9377 ft 289 kts 221°
2026-05-08 05:13 21.10084 -157.99938 10209 ft 293 kts 221°
2026-05-08 05:14 21.08568 -158.01474 10695 ft 308 kts 231°
2026-05-08 05:14 21.07308 -158.03403 11074 ft 326 kts 243°
2026-05-08 05:14 21.06418 -158.05708 11430 ft 345 kts 255°
2026-05-08 05:14 21.06013 -158.08298 11818 ft 361 kts 265°
2026-05-08 05:15 21.05791 -158.11008 12509 ft 369 kts 265°
2026-05-08 05:15 21.05565 -158.13760 13266 ft 374 kts 265°
2026-05-08 05:15 21.05317 -158.16540 14029 ft 378 kts 264°
2026-05-08 05:15 21.05060 -158.19362 14701 ft 383 kts 264°
2026-05-08 05:16 21.04809 -158.22214 15375 ft 387 kts 265°
2026-05-08 05:16 21.04557 -158.25104 16039 ft 392 kts 265°
2026-05-08 05:16 21.04298 -158.28026 16691 ft 397 kts 264°
2026-05-08 05:16 21.04034 -158.30982 17337 ft 401 kts 264°
2026-05-08 05:17 21.03767 -158.33974 17974 ft 406 kts 264°
2026-05-08 05:17 21.03498 -158.36999 18573 ft 410 kts 264°
2026-05-08 05:17 21.03226 -158.40054 19142 ft 414 kts 264°
2026-05-08 05:17 21.02950 -158.43133 19720 ft 417 kts 264°
2026-05-08 05:18 21.02671 -158.46233 20304 ft 420 kts 264°
2026-05-08 05:18 21.02390 -158.49360 20880 ft 423 kts 264°
2026-05-08 05:18 21.02107 -158.52506 21445 ft 426 kts 264°
2026-05-08 05:18 21.01821 -158.55673 22001 ft 429 kts 264°
2026-05-08 05:19 21.01532 -158.58861 22540 ft 432 kts 264°
2026-05-08 05:19 21.01241 -158.62074 23072 ft 435 kts 264°
2026-05-08 05:19 21.00947 -158.65309 23586 ft 438 kts 264°
2026-05-08 05:19 21.00650 -158.68565 24041 ft 441 kts 264°
2026-05-08 05:20 21.00351 -158.71843 24483 ft 443 kts 264°
2026-05-08 05:20 21.00050 -158.75136 24911 ft 446 kts 264°
2026-05-08 05:20 20.99747 -158.78443 25356 ft 448 kts 264°
2026-05-08 05:20 20.99442 -158.81766 25789 ft 450 kts 264°
2026-05-08 05:21 20.99135 -158.85101 26073 ft 452 kts 264°
2026-05-08 05:21 20.98827 -158.88441 26093 ft 449 kts 264°
2026-05-08 05:21 20.98520 -158.91763 26097 ft 448 kts 264°
2026-05-08 05:21 20.98213 -158.95075 26091 ft 448 kts 264°
2026-05-08 05:22 20.97905 -158.98389 26092 ft 448 kts 263°
2026-05-08 05:22 20.97321 -159.01649 26121 ft 447 kts 252°
2026-05-08 05:22 20.96354 -159.04819 26112 ft 448 kts 251°
2026-05-08 05:22 20.95355 -159.07979 26110 ft 448 kts 251°
2026-05-08 05:23 20.94355 -159.11136 26113 ft 449 kts 251°
2026-05-08 05:23 20.93379 -159.14258 26109 ft 448 kts 251°
2026-05-08 05:23 20.92381 -159.17464 26110 ft 448 kts 251°
2026-05-08 05:23 20.91400 -159.20585 26112 ft 449 kts 251°
2026-05-08 05:24 20.90404 -159.23745 26113 ft 448 kts 251°
2026-05-08 05:24 20.89411 -159.26902 26112 ft 448 kts 251°
2026-05-08 05:24 20.88420 -159.30058 26111 ft 448 kts 251°
2026-05-08 05:24 20.87428 -159.33212 26113 ft 447 kts 251°
2026-05-08 05:25 20.86434 -159.36366 26112 ft 447 kts 251°
2026-05-08 05:25 20.85440 -159.39515 26111 ft 447 kts 251°
2026-05-08 05:25 20.84446 -159.42668 26112 ft 448 kts 251°
2026-05-08 05:25 20.83449 -159.45826 26113 ft 448 kts 251°
2026-05-08 05:26 20.82453 -159.48981 26113 ft 448 kts 251°
2026-05-08 05:26 20.81456 -159.52132 26115 ft 448 kts 251°
2026-05-08 05:26 20.80459 -159.55285 26113 ft 448 kts 251°
2026-05-08 05:26 20.79461 -159.58438 26112 ft 448 kts 251°
2026-05-08 05:27 20.78461 -159.61593 26112 ft 448 kts 251°
2026-05-08 05:27 20.77462 -159.64745 26113 ft 448 kts 251°
2026-05-08 05:27 20.76461 -159.67899 26110 ft 448 kts 251°
2026-05-08 05:27 20.75461 -159.71049 26113 ft 448 kts 251°
2026-05-08 05:28 20.74461 -159.74198 26112 ft 448 kts 251°
2026-05-08 05:28 20.73457 -159.77356 26114 ft 448 kts 251°
2026-05-08 05:28 20.72454 -159.80510 26116 ft 448 kts 251°
2026-05-08 05:28 20.71450 -159.83663 26115 ft 449 kts 251°
2026-05-08 05:29 20.70445 -159.86817 26112 ft 448 kts 251°
2026-05-08 05:29 20.69441 -159.89967 26113 ft 448 kts 251°
2026-05-08 05:29 20.68436 -159.93119 26112 ft 448 kts 251°
2026-05-08 05:29 20.67430 -159.96268 26115 ft 448 kts 251°
2026-05-08 05:30 20.66422 -159.99424 26115 ft 448 kts 251°
2026-05-08 05:30 20.65417 -160.02568 26115 ft 448 kts 251°
2026-05-08 05:30 20.64408 -160.05723 26114 ft 448 kts 251°
2026-05-08 05:30 20.63401 -160.08867 26113 ft 448 kts 251°
2026-05-08 05:31 20.62405 -160.11976 26116 ft 448 kts 251°
2026-05-08 05:31 20.61399 -160.15117 26114 ft 448 kts 251°
2026-05-08 05:31 20.60375 -160.18308 26114 ft 448 kts 251°
2026-05-08 05:31 20.59380 -160.21407 26112 ft 448 kts 251°
2026-05-08 05:32 20.58370 -160.24550 26111 ft 448 kts 251°
2026-05-08 05:32 20.57358 -160.27699 26113 ft 448 kts 251°
2026-05-08 05:32 20.56348 -160.30839 26111 ft 448 kts 251°
2026-05-08 05:32 20.55338 -160.33977 26112 ft 447 kts 251°
2026-05-08 05:33 20.54328 -160.37112 26113 ft 447 kts 251°
2026-05-08 05:33 20.53319 -160.40241 26113 ft 446 kts 251°
2026-05-08 05:33 20.52310 -160.43368 26111 ft 446 kts 251°
2026-05-08 05:33 20.51301 -160.46496 26110 ft 446 kts 251°
2026-05-08 05:34 20.50291 -160.49623 26109 ft 446 kts 251°
2026-05-08 05:34 20.49280 -160.52750 26108 ft 446 kts 251°
2026-05-08 05:34 20.48269 -160.55874 26108 ft 446 kts 251°
2026-05-08 05:34 20.47258 -160.58998 26107 ft 446 kts 251°
2026-05-08 05:35 20.46246 -160.62123 26107 ft 445 kts 251°
2026-05-08 05:35 20.45235 -160.65243 26109 ft 445 kts 251°
2026-05-08 05:35 20.44225 -160.68357 26110 ft 445 kts 251°
2026-05-08 05:35 20.43211 -160.71479 26109 ft 446 kts 251°
2026-05-08 05:36 20.42197 -160.74603 26106 ft 446 kts 251°
2026-05-08 05:36 20.41182 -160.77726 26108 ft 446 kts 251°
2026-05-08 05:36 20.40166 -160.80851 26109 ft 446 kts 251°
2026-05-08 05:36 20.39149 -160.83971 26110 ft 445 kts 251°
2026-05-08 05:37 20.38133 -160.87089 26111 ft 445 kts 251°
2026-05-08 05:37 20.37014 -160.90165 26114 ft 446 kts 248°
2026-05-08 05:37 20.35821 -160.93211 26107 ft 445 kts 248°
2026-05-08 05:37 20.34638 -160.96258 26108 ft 445 kts 248°
2026-05-08 05:38 20.33455 -160.99304 26107 ft 445 kts 248°
2026-05-08 05:38 20.32267 -161.02346 26108 ft 445 kts 248°
2026-05-08 05:38 20.31077 -161.05390 26109 ft 445 kts 248°
2026-05-08 05:38 20.29887 -161.08436 26111 ft 445 kts 248°
2026-05-08 05:39 20.28699 -161.11480 26110 ft 445 kts 248°
2026-05-08 05:39 20.27509 -161.14525 26110 ft 445 kts 248°
2026-05-08 05:39 20.26319 -161.17566 26110 ft 445 kts 248°
2026-05-08 05:39 20.25128 -161.20608 26108 ft 444 kts 248°
2026-05-08 05:40 20.23937 -161.23648 26110 ft 444 kts 248°
2026-05-08 05:40 20.22748 -161.26683 26109 ft 444 kts 248°
2026-05-08 05:40 20.21556 -161.29721 26109 ft 445 kts 248°
2026-05-08 05:40 20.20366 -161.32756 26108 ft 445 kts 248°
2026-05-08 05:41 20.19174 -161.35791 26109 ft 444 kts 248°
2026-05-08 05:41 20.17981 -161.38828 26107 ft 444 kts 248°
2026-05-08 05:41 20.16788 -161.41862 26109 ft 444 kts 248°
2026-05-08 05:41 20.15595 -161.44895 26108 ft 444 kts 248°
2026-05-08 05:42 20.14417 -161.47889 26107 ft 444 kts 248°
2026-05-08 05:42 20.13224 -161.50921 26106 ft 444 kts 248°
2026-05-08 05:42 20.12030 -161.53950 26102 ft 444 kts 248°
2026-05-08 05:42 20.10836 -161.56979 26103 ft 444 kts 248°
2026-05-08 05:43 20.09642 -161.60007 26103 ft 444 kts 248°
2026-05-08 05:43 20.08447 -161.63035 26103 ft 444 kts 248°
2026-05-08 05:43 20.07252 -161.66061 26104 ft 443 kts 248°
2026-05-08 05:43 20.06055 -161.69090 26102 ft 443 kts 248°
2026-05-08 05:44 20.04860 -161.72111 26106 ft 444 kts 248°
2026-05-08 05:44 20.03664 -161.75136 26106 ft 444 kts 248°
2026-05-08 05:44 20.02466 -161.78161 26106 ft 444 kts 248°
2026-05-08 05:44 20.01268 -161.81187 26106 ft 443 kts 248°
2026-05-08 05:45 20.00070 -161.84210 26105 ft 443 kts 248°
2026-05-08 05:45 19.98871 -161.87233 26102 ft 444 kts 248°
2026-05-08 05:45 19.97673 -161.90254 26102 ft 444 kts 248°
2026-05-08 05:45 19.96472 -161.93278 26103 ft 444 kts 248°
2026-05-08 05:46 19.95274 -161.96294 26105 ft 443 kts 248°
2026-05-08 05:46 19.94072 -161.99317 26101 ft 443 kts 248°
2026-05-08 05:46 19.92873 -162.02334 26101 ft 443 kts 248°
2026-05-08 05:46 19.91672 -162.05352 26101 ft 443 kts 248°
2026-05-08 05:47 19.90469 -162.08375 26098 ft 444 kts 248°
2026-05-08 05:47 19.89265 -162.11396 26098 ft 444 kts 248°
2026-05-08 05:47 19.88062 -162.14415 26100 ft 443 kts 248°
2026-05-08 05:47 19.86860 -162.17429 26097 ft 443 kts 248°
2026-05-08 05:48 19.85672 -162.20406 26100 ft 443 kts 248°
2026-05-08 05:48 19.84470 -162.23415 26100 ft 443 kts 248°
2026-05-08 05:48 19.83266 -162.26429 26097 ft 443 kts 248°
2026-05-08 05:48 19.82046 -162.29481 26096 ft 443 kts 248°
2026-05-08 05:49 19.80843 -162.32489 26092 ft 443 kts 248°
2026-05-08 05:49 19.79656 -162.35456 26093 ft 442 kts 248°
2026-05-08 05:49 19.78437 -162.38501 26092 ft 442 kts 248°
2026-05-08 05:49 19.77233 -162.41507 26092 ft 443 kts 248°
2026-05-08 05:50 19.76027 -162.44514 26092 ft 443 kts 248°
2026-05-08 05:50 19.74821 -162.47520 26094 ft 443 kts 248°
2026-05-08 05:50 19.73615 -162.50526 26092 ft 442 kts 248°
2026-05-08 05:50 19.72424 -162.53493 26094 ft 442 kts 248°
2026-05-08 05:51 19.71217 -162.56497 26091 ft 443 kts 248°
2026-05-08 05:51 19.70008 -162.59505 26092 ft 443 kts 248°
2026-05-08 05:51 19.68798 -162.62511 26090 ft 443 kts 248°
2026-05-08 05:51 19.67589 -162.65516 26090 ft 443 kts 248°
2026-05-08 05:52 19.66379 -162.68520 26092 ft 442 kts 248°
2026-05-08 05:52 19.65085 -162.71480 26098 ft 443 kts 244°
2026-05-08 05:52 19.63698 -162.74403 26095 ft 444 kts 245°
2026-05-08 05:52 19.62317 -162.77330 26101 ft 444 kts 245°
2026-05-08 05:53 19.60937 -162.80259 26100 ft 444 kts 245°
2026-05-08 05:53 19.59553 -162.83188 26097 ft 444 kts 245°
2026-05-08 05:53 19.58168 -162.86112 26098 ft 444 kts 245°
2026-05-08 05:53 19.56784 -162.89037 26093 ft 444 kts 245°
2026-05-08 05:54 19.55402 -162.91958 26098 ft 443 kts 245°
2026-05-08 05:54 19.54019 -162.94880 26098 ft 443 kts 245°
2026-05-08 05:54 19.52635 -162.97800 26097 ft 443 kts 245°
2026-05-08 05:54 19.51252 -163.00717 26094 ft 443 kts 245°
2026-05-08 05:55 19.49868 -163.03635 26093 ft 443 kts 245°
2026-05-08 05:55 19.48483 -163.06554 26095 ft 443 kts 245°
2026-05-08 05:55 19.47099 -163.09469 26093 ft 443 kts 245°
2026-05-08 05:55 19.46180 -163.11401 26095 ft 443 kts 245°
2026-05-08 05:56 19.44795 -163.14315 26092 ft 443 kts 245°
2026-05-08 05:56 19.42959 -163.18178 26092 ft 443 kts 245°
2026-05-08 05:56 19.41572 -163.21092 26093 ft 443 kts 245°
2026-05-08 05:56 19.40184 -163.24008 26090 ft 443 kts 245°
2026-05-08 05:57 19.39248 -163.25975 26086 ft 443 kts 245°
2026-05-08 05:57 19.37862 -163.28884 26089 ft 442 kts 245°
2026-05-08 05:57 19.36477 -163.31790 26086 ft 442 kts 245°
2026-05-08 05:57 19.35089 -163.34699 26091 ft 442 kts 245°
2026-05-08 05:58 19.33719 -163.37571 26093 ft 443 kts 245°
2026-05-08 05:58 19.32331 -163.40479 26092 ft 443 kts 245°
2026-05-08 05:58 19.30941 -163.43388 26085 ft 442 kts 245°
2026-05-08 05:58 19.29553 -163.46293 26088 ft 442 kts 245°
2026-05-08 05:59 19.28166 -163.49194 26090 ft 442 kts 245°
2026-05-08 05:59 19.26779 -163.52094 26088 ft 441 kts 245°
2026-05-08 05:59 19.25394 -163.54989 26088 ft 442 kts 245°
2026-05-08 05:59 19.24001 -163.57898 26089 ft 442 kts 245°
2026-05-08 06:00 19.22611 -163.60798 26090 ft 442 kts 245°
2026-05-08 06:00 19.21220 -163.63701 26087 ft 442 kts 245°
2026-05-08 06:00 19.19832 -163.66596 26091 ft 442 kts 245°
2026-05-08 06:00 19.18443 -163.69491 26089 ft 441 kts 245°
2026-05-08 06:01 19.17050 -163.72393 26087 ft 441 kts 245°
2026-05-08 06:01 19.15661 -163.75284 26093 ft 441 kts 245°
2026-05-08 06:01 19.14272 -163.78177 26090 ft 441 kts 245°
2026-05-08 06:01 19.12882 -163.81068 26089 ft 441 kts 245°
2026-05-08 06:02 19.11493 -163.83956 26095 ft 441 kts 245°
2026-05-08 06:02 19.10101 -163.86847 26092 ft 441 kts 245°
2026-05-08 06:02 19.08711 -163.89735 26091 ft 441 kts 245°
2026-05-08 06:02 19.07337 -163.92588 26087 ft 441 kts 245°
2026-05-08 06:03 19.05945 -163.95476 26090 ft 441 kts 245°
2026-05-08 06:03 19.04550 -163.98370 26097 ft 442 kts 245°
2026-05-08 06:03 19.03156 -164.01259 26095 ft 442 kts 245°
2026-05-08 06:03 19.01760 -164.04152 26101 ft 441 kts 245°
2026-05-08 06:04 19.00366 -164.07039 26088 ft 441 kts 245°
2026-05-08 06:04 18.98972 -164.09926 26097 ft 440 kts 245°
2026-05-08 06:04 18.97579 -164.12807 26088 ft 440 kts 245°
2026-05-08 06:04 18.96188 -164.15684 26092 ft 440 kts 245°
2026-05-08 06:05 18.94795 -164.18563 26091 ft 440 kts 245°
2026-05-08 06:05 18.93401 -164.21443 26091 ft 440 kts 245°
2026-05-08 06:05 18.92008 -164.24321 26088 ft 440 kts 245°
2026-05-08 06:05 18.90612 -164.27200 26096 ft 440 kts 245°
2026-05-08 06:06 18.89217 -164.30079 26091 ft 440 kts 245°
2026-05-08 06:06 18.87823 -164.32953 26086 ft 440 kts 245°
2026-05-08 06:06 18.86427 -164.35831 26094 ft 440 kts 245°
2026-05-08 06:06 18.85032 -164.38705 26091 ft 440 kts 245°
2026-05-08 06:07 18.83636 -164.41580 26090 ft 440 kts 245°
2026-05-08 06:07 18.82240 -164.44452 26090 ft 439 kts 245°
2026-05-08 06:07 18.80846 -164.47320 26089 ft 440 kts 245°
2026-05-08 06:07 18.79450 -164.50189 26094 ft 440 kts 245°
2026-05-08 06:08 18.78053 -164.53060 26085 ft 440 kts 245°
2026-05-08 06:08 18.76656 -164.55931 26084 ft 439 kts 245°
2026-05-08 06:08 18.75260 -164.58796 26086 ft 439 kts 245°
2026-05-08 06:08 18.73864 -164.61660 26084 ft 439 kts 245°
2026-05-08 06:09 18.72466 -164.64528 26088 ft 439 kts 244°
2026-05-08 06:09 18.71069 -164.67392 26084 ft 439 kts 244°
2026-05-08 06:09 18.69671 -164.70257 26083 ft 439 kts 244°
2026-05-08 06:09 18.68274 -164.73118 26087 ft 439 kts 244°
2026-05-08 06:10 18.66877 -164.75979 26078 ft 439 kts 244°
2026-05-08 06:10 18.65480 -164.78837 26082 ft 438 kts 244°
2026-05-08 06:10 18.64084 -164.81693 26076 ft 439 kts 244°
2026-05-08 06:10 18.62704 -164.84514 26079 ft 439 kts 244°
2026-05-08 06:11 18.61304 -164.87374 26081 ft 439 kts 244°
2026-05-08 06:11 18.59905 -164.90233 26083 ft 439 kts 244°
2026-05-08 06:11 18.58505 -164.93090 26081 ft 439 kts 244°
2026-05-08 06:11 18.57104 -164.95948 26078 ft 438 kts 244°
2026-05-08 06:12 18.55703 -164.98806 26077 ft 439 kts 244°
2026-05-08 06:12 18.54303 -165.01660 26076 ft 439 kts 244°
2026-05-08 06:12 18.52902 -165.04515 26075 ft 438 kts 244°
2026-05-08 06:12 18.51502 -165.07366 26082 ft 438 kts 244°
2026-05-08 06:13 18.50103 -165.10213 26076 ft 438 kts 244°
2026-05-08 06:13 18.48703 -165.13063 26076 ft 438 kts 244°
2026-05-08 06:13 18.47301 -165.15914 26077 ft 438 kts 244°
2026-05-08 06:13 18.45903 -165.18757 26080 ft 438 kts 244°
2026-05-08 06:14 18.44500 -165.21606 26072 ft 437 kts 244°
2026-05-08 06:14 18.43101 -165.24448 26084 ft 437 kts 244°
2026-05-08 06:14 18.41701 -165.27291 26084 ft 437 kts 244°
2026-05-08 06:14 18.40302 -165.30129 26083 ft 437 kts 244°
2026-05-08 06:15 18.38901 -165.32970 26083 ft 437 kts 244°
2026-05-08 06:15 18.37502 -165.35806 26083 ft 437 kts 244°
2026-05-08 06:15 18.36102 -165.38643 26079 ft 436 kts 244°
2026-05-08 06:15 18.34705 -165.41473 26080 ft 436 kts 244°
2026-05-08 06:16 18.33309 -165.44297 26073 ft 435 kts 244°
2026-05-08 06:16 18.31915 -165.47118 26083 ft 435 kts 244°
2026-05-08 06:16 18.30518 -165.49944 26081 ft 435 kts 244°
2026-05-08 06:16 18.29120 -165.52770 26081 ft 435 kts 244°
2026-05-08 06:17 18.26325 -165.58418 26080 ft 435 kts 244°
2026-05-08 06:17 18.24924 -165.61245 26079 ft 435 kts 244°
2026-05-08 06:17 18.23524 -165.64070 26079 ft 435 kts 244°
2026-05-08 06:18 18.22125 -165.66891 26082 ft 435 kts 244°
2026-05-08 06:18 18.20726 -165.69712 26078 ft 435 kts 244°
2026-05-08 06:18 18.19329 -165.72528 26081 ft 435 kts 244°
2026-05-08 06:18 18.17928 -165.75350 26079 ft 435 kts 244°
2026-05-08 06:19 18.16548 -165.78128 26079 ft 434 kts 244°
2026-05-08 06:19 18.15134 -165.80973 26077 ft 434 kts 244°
2026-05-08 06:19 18.13736 -165.83786 26079 ft 433 kts 244°
2026-05-08 06:19 18.12361 -165.86551 26077 ft 433 kts 244°
2026-05-08 06:20 18.10965 -165.89355 26073 ft 433 kts 244°
2026-05-08 06:20 18.09569 -165.92160 26071 ft 433 kts 244°
2026-05-08 06:20 18.08174 -165.94960 26071 ft 433 kts 244°
2026-05-08 06:20 18.06778 -165.97763 26070 ft 433 kts 244°
2026-05-08 06:21 18.05384 -166.00560 26070 ft 432 kts 244°
2026-05-08 06:21 18.03988 -166.03358 26068 ft 432 kts 244°
2026-05-08 06:21 18.02592 -166.06157 26069 ft 432 kts 244°
2026-05-08 06:21 18.01196 -166.08953 26067 ft 432 kts 244°
2026-05-08 06:22 17.99801 -166.11748 26070 ft 432 kts 244°
2026-05-08 06:22 17.98405 -166.14541 26067 ft 432 kts 244°
2026-05-08 06:22 17.97007 -166.17338 26065 ft 432 kts 244°
2026-05-08 06:22 17.95612 -166.20128 26067 ft 431 kts 244°
2026-05-08 06:23 17.94216 -166.22919 26067 ft 432 kts 244°
2026-05-08 06:23 17.92820 -166.25708 26068 ft 432 kts 244°
2026-05-08 06:23 17.91423 -166.28497 26065 ft 431 kts 244°
2026-05-08 06:23 17.90027 -166.31285 26066 ft 432 kts 244°
2026-05-08 06:24 17.88630 -166.34072 26063 ft 432 kts 244°
2026-05-08 06:24 17.87230 -166.36863 26064 ft 432 kts 244°
2026-05-08 06:24 17.85832 -166.39651 26063 ft 432 kts 244°
2026-05-08 06:24 17.84433 -166.42438 26064 ft 431 kts 244°
2026-05-08 06:25 17.83037 -166.45219 26066 ft 431 kts 244°
2026-05-08 06:25 17.81639 -166.48004 26064 ft 431 kts 244°
2026-05-08 06:25 17.80242 -166.50784 26063 ft 430 kts 244°
2026-05-08 06:25 17.78846 -166.53561 26062 ft 431 kts 244°
2026-05-08 06:26 17.77448 -166.56341 26065 ft 431 kts 244°
2026-05-08 06:26 17.76050 -166.59118 26065 ft 431 kts 244°
2026-05-08 06:26 17.74652 -166.61896 26061 ft 430 kts 244°
2026-05-08 06:26 17.73255 -166.64670 26061 ft 430 kts 244°
2026-05-08 06:27 17.71859 -166.67443 26064 ft 430 kts 244°
2026-05-08 06:27 17.70461 -166.70216 26062 ft 430 kts 244°
2026-05-08 06:27 17.69061 -166.72992 26061 ft 430 kts 244°
2026-05-08 06:27 17.67662 -166.75766 26063 ft 430 kts 244°
2026-05-08 06:28 17.66262 -166.78540 26064 ft 430 kts 244°
2026-05-08 06:28 17.64863 -166.81310 26061 ft 430 kts 244°
2026-05-08 06:28 17.63461 -166.84085 26059 ft 430 kts 244°
2026-05-08 06:28 17.62064 -166.86851 26058 ft 430 kts 244°
2026-05-08 06:29 17.60663 -166.89622 26060 ft 429 kts 244°
2026-05-08 06:29 17.59266 -166.92385 26059 ft 430 kts 244°
2026-05-08 06:29 17.57865 -166.95154 26061 ft 430 kts 244°
2026-05-08 06:29 17.56464 -166.97920 26060 ft 429 kts 244°
2026-05-08 06:30 17.55066 -167.00682 26060 ft 429 kts 244°
2026-05-08 06:30 17.53664 -167.03448 26061 ft 430 kts 244°
2026-05-08 06:30 17.52264 -167.06211 26061 ft 429 kts 244°
2026-05-08 06:30 17.50862 -167.08975 26058 ft 429 kts 244°
2026-05-08 06:31 17.49485 -167.11691 26062 ft 429 kts 244°
2026-05-08 06:31 17.48064 -167.14490 26062 ft 429 kts 244°
2026-05-08 06:31 17.46680 -167.17216 26061 ft 430 kts 244°
2026-05-08 06:31 17.45276 -167.19982 26062 ft 430 kts 244°
2026-05-08 06:32 17.43873 -167.22742 26061 ft 429 kts 244°
2026-05-08 06:32 17.42470 -167.25501 26062 ft 429 kts 244°
2026-05-08 06:32 17.41067 -167.28261 26060 ft 429 kts 244°
2026-05-08 06:32 17.39665 -167.31015 26060 ft 428 kts 244°
2026-05-08 06:33 17.38264 -167.33769 26059 ft 429 kts 244°
2026-05-08 06:33 17.36860 -167.36525 26057 ft 429 kts 244°
2026-05-08 06:33 17.35456 -167.39282 26057 ft 429 kts 244°
2026-05-08 06:33 17.34053 -167.42035 26057 ft 428 kts 244°
2026-05-08 06:34 17.32652 -167.44782 26057 ft 428 kts 244°
2026-05-08 06:34 17.31249 -167.47534 26057 ft 429 kts 244°
2026-05-08 06:34 17.29845 -167.50284 26057 ft 428 kts 244°
2026-05-08 06:34 17.28441 -167.53035 26056 ft 428 kts 244°
2026-05-08 06:35 17.27038 -167.55782 26058 ft 429 kts 244°
2026-05-08 06:35 17.25633 -167.58532 26055 ft 429 kts 244°
2026-05-08 06:35 17.24227 -167.61282 26055 ft 429 kts 244°
2026-05-08 06:35 17.22818 -167.64037 26056 ft 429 kts 244°
2026-05-08 06:36 17.21408 -167.66794 26060 ft 430 kts 244°
2026-05-08 06:36 17.19997 -167.69551 26059 ft 430 kts 244°
2026-05-08 06:36 17.18588 -167.72302 26060 ft 429 kts 244°
2026-05-08 06:36 17.17181 -167.75049 26058 ft 428 kts 244°
2026-05-08 06:37 17.15793 -167.77759 26057 ft 428 kts 244°
2026-05-08 06:37 17.14387 -167.80502 26057 ft 428 kts 244°
2026-05-08 06:37 17.12978 -167.83249 26055 ft 429 kts 244°
2026-05-08 06:37 17.11567 -167.85998 26059 ft 429 kts 244°
2026-05-08 06:38 17.10158 -167.88743 26060 ft 429 kts 244°
2026-05-08 06:38 17.08748 -167.91490 26056 ft 428 kts 244°
2026-05-08 06:38 17.07340 -167.94232 26056 ft 428 kts 244°
2026-05-08 06:38 17.05928 -167.96979 26056 ft 429 kts 244°
2026-05-08 06:39 17.04517 -167.99723 26056 ft 429 kts 244°
2026-05-08 06:39 17.03106 -168.02466 26056 ft 428 kts 244°
2026-05-08 06:39 17.01696 -168.05206 26054 ft 428 kts 244°
2026-05-08 06:39 17.00286 -168.07946 26054 ft 428 kts 244°
2026-05-08 06:40 16.98876 -168.10683 26055 ft 428 kts 244°
2026-05-08 06:40 16.97468 -168.13417 26051 ft 427 kts 244°
2026-05-08 06:40 16.96059 -168.16150 26055 ft 427 kts 244°
2026-05-08 06:40 16.94652 -168.18880 26055 ft 427 kts 244°
2026-05-08 06:41 16.93245 -168.21607 26054 ft 427 kts 244°
2026-05-08 06:41 16.91836 -168.24337 26052 ft 427 kts 244°
2026-05-08 06:41 16.90425 -168.27071 26053 ft 428 kts 244°
2026-05-08 06:41 16.89013 -168.29806 26051 ft 428 kts 244°
2026-05-08 06:42 16.88078 -168.31615 26053 ft 428 kts 244°
2026-05-08 06:42 16.86188 -168.35272 26052 ft 428 kts 244°
2026-05-08 06:42 16.85252 -168.37082 26052 ft 428 kts 244°
2026-05-08 06:42 16.83839 -168.39815 26050 ft 428 kts 244°
2026-05-08 06:43 16.82426 -168.42545 26049 ft 427 kts 243°
2026-05-08 06:43 16.81014 -168.45273 26054 ft 428 kts 243°
2026-05-08 06:43 16.79600 -168.48003 26053 ft 428 kts 243°
2026-05-08 06:43 16.78185 -168.50735 26054 ft 428 kts 243°
2026-05-08 06:44 16.76771 -168.53463 26053 ft 428 kts 243°
2026-05-08 06:44 16.75356 -168.56192 26052 ft 427 kts 243°
2026-05-08 06:44 16.73943 -168.58917 26054 ft 427 kts 243°
2026-05-08 06:44 16.72529 -168.61642 26052 ft 428 kts 243°
2026-05-08 06:45 16.71111 -168.64374 26053 ft 428 kts 243°
2026-05-08 06:45 16.69693 -168.67105 26058 ft 428 kts 243°
2026-05-08 06:45 16.68273 -168.69837 26058 ft 428 kts 243°
2026-05-08 06:45 16.66855 -168.72565 26055 ft 428 kts 243°
2026-05-08 06:46 16.65436 -168.75295 26056 ft 428 kts 243°
2026-05-08 06:46 16.64017 -168.78025 26053 ft 428 kts 243°
2026-05-08 06:46 16.62595 -168.80756 26051 ft 428 kts 243°
2026-05-08 06:46 16.61175 -168.83484 26050 ft 428 kts 243°
2026-05-08 06:47 16.59754 -168.86213 26051 ft 428 kts 243°
2026-05-08 06:47 16.58334 -168.88939 26051 ft 428 kts 243°
2026-05-08 06:47 16.56914 -168.91663 26048 ft 427 kts 243°
2026-05-08 06:47 16.55497 -168.94382 26049 ft 427 kts 243°
2026-05-08 06:48 16.54077 -168.97104 26046 ft 427 kts 243°
2026-05-08 06:48 16.52656 -168.99827 26048 ft 428 kts 243°
2026-05-08 06:48 16.51233 -169.02553 26052 ft 428 kts 243°
2026-05-08 06:48 16.49811 -169.05276 26051 ft 428 kts 243°
2026-05-08 06:49 16.48387 -169.08002 26056 ft 428 kts 243°
2026-05-08 06:49 16.46963 -169.10728 26053 ft 428 kts 243°
2026-05-08 06:49 16.45560 -169.13411 26054 ft 428 kts 243°
2026-05-08 06:49 16.44134 -169.16137 26054 ft 428 kts 243°
2026-05-08 06:50 16.42708 -169.18863 26057 ft 429 kts 243°
2026-05-08 06:50 16.41280 -169.21590 26055 ft 429 kts 243°
2026-05-08 06:50 16.39853 -169.24317 26053 ft 429 kts 243°
2026-05-08 06:50 16.38423 -169.27047 26053 ft 429 kts 243°
2026-05-08 06:51 16.36995 -169.29772 26050 ft 429 kts 243°
2026-05-08 06:51 16.35566 -169.32496 26047 ft 429 kts 243°
2026-05-08 06:51 16.34140 -169.35215 26049 ft 429 kts 243°
2026-05-08 06:51 16.32708 -169.37945 26048 ft 429 kts 243°
2026-05-08 06:52 16.31280 -169.40666 26047 ft 428 kts 243°
2026-05-08 06:52 16.29851 -169.43387 26045 ft 428 kts 243°
2026-05-08 06:52 16.28423 -169.46105 26045 ft 428 kts 243°
2026-05-08 06:52 16.26996 -169.48821 26044 ft 428 kts 243°
2026-05-08 06:53 16.25568 -169.51538 26045 ft 428 kts 243°
2026-05-08 06:53 16.24138 -169.54256 26051 ft 428 kts 243°
2026-05-08 06:53 16.22710 -169.56972 26047 ft 428 kts 243°
2026-05-08 06:53 16.21279 -169.59691 26049 ft 429 kts 243°
2026-05-08 06:54 16.19845 -169.62414 26048 ft 429 kts 243°
2026-05-08 06:54 16.18410 -169.65138 26050 ft 429 kts 243°
2026-05-08 06:54 16.16976 -169.67860 26049 ft 429 kts 243°
2026-05-08 06:54 16.15540 -169.70584 26049 ft 429 kts 243°
2026-05-08 06:55 16.14105 -169.73306 26049 ft 429 kts 243°
2026-05-08 06:55 16.12669 -169.76027 26048 ft 429 kts 243°
2026-05-08 06:55 16.11234 -169.78746 26049 ft 429 kts 243°
2026-05-08 06:55 16.09798 -169.81467 26050 ft 429 kts 243°
2026-05-08 06:56 16.08360 -169.84190 26049 ft 430 kts 243°
2026-05-08 06:56 16.06921 -169.86914 26048 ft 430 kts 243°
2026-05-08 06:56 16.05479 -169.89642 26049 ft 431 kts 243°
2026-05-08 06:56 16.04058 -169.92329 26047 ft 430 kts 243°
2026-05-08 06:57 16.02769 -169.95168 26066 ft 428 kts 251°
2026-05-08 06:57 16.01961 -169.98137 26065 ft 427 kts 260°
2026-05-08 06:57 16.01629 -170.01205 26062 ft 427 kts 269°
2026-05-08 06:57 16.01784 -170.04286 26063 ft 428 kts 277°
2026-05-08 06:58 16.02424 -170.07312 26065 ft 430 kts 286°
2026-05-08 06:58 16.03370 -170.10226 26134 ft 433 kts 287°
2026-05-08 06:58 16.04341 -170.13197 26549 ft 435 kts 287°
2026-05-08 06:58 16.05324 -170.16180 27012 ft 437 kts 287°
2026-05-08 06:59 16.06313 -170.19179 27455 ft 440 kts 287°
2026-05-08 06:59 16.07303 -170.22194 27880 ft 442 kts 286°
2026-05-08 06:59 16.08296 -170.25227 28050 ft 444 kts 286°
2026-05-08 06:59 16.09289 -170.28252 28042 ft 441 kts 286°
2026-05-08 07:00 16.11266 -170.34279 28042 ft 440 kts 286°
2026-05-08 07:00 16.13237 -170.40301 28048 ft 440 kts 286°
2026-05-08 07:01 16.15210 -170.46332 28050 ft 440 kts 286°
2026-05-08 07:01 16.17182 -170.52367 28052 ft 441 kts 286°
2026-05-08 07:02 16.19154 -170.58409 28059 ft 441 kts 286°
2026-05-08 07:02 16.21123 -170.64447 28061 ft 440 kts 286°
2026-05-08 07:03 16.23089 -170.70481 28060 ft 440 kts 286°
2026-05-08 07:03 16.25049 -170.76507 28059 ft 439 kts 286°
2026-05-08 07:04 16.27006 -170.82529 28059 ft 439 kts 286°
2026-05-08 07:04 16.28952 -170.88522 28061 ft 440 kts 286°
2026-05-08 07:05 16.30911 -170.94561 28066 ft 441 kts 286°
2026-05-08 07:05 16.32867 -171.00598 28068 ft 440 kts 286°
2026-05-08 07:06 16.34820 -171.06633 28068 ft 440 kts 286°
2026-05-08 07:06 16.36772 -171.12670 28067 ft 440 kts 286°
2026-05-08 07:07 16.38723 -171.18713 28067 ft 440 kts 286°
2026-05-08 07:07 16.40672 -171.24754 28069 ft 440 kts 285°
2026-05-08 07:08 16.42621 -171.30802 28070 ft 441 kts 285°
2026-05-08 07:08 16.44568 -171.36851 28070 ft 441 kts 285°
2026-05-08 07:09 16.46515 -171.42906 28070 ft 441 kts 285°